EHI
3 1 0 1 3 1 0 0 0 0 1 1 1 2 3 2 1 1 2 3 3 3 5 13 21 24 23 19 14 11 10 7 5 4 4 3 3 4 3 1 0 0 0 0 0 0 0 0 0
1 1 1 2 3 2 0 0 0 1 2 2 2 3 3 2 2 2 3 4 3 2 4 10 19 24 24 19 15 13 12 9 7 6 4 4 4 3 2 1 0 0 0 0 0 0 0 0 1
1 2 3 4 5 4 2 1 0 1 2 3 3 3 2 2 3 3 5 6 4 3 5 9 16 22 23 19 16 15 14 12 10 8 6 6 5 4 2 1 0 0 0 1 0 0 0 0 1
2 2 3 4 6 5 4 2 1 2 3 4 5 3 2 3 5 6 7 5 3 4 6 10 16 20 20 18 15 14 14 13 11 10 9 7 6 4 4 3 1 0 0 0 0 0 0 0 1
3 4 3 2 3 3 3 1 1 3 4 5 5 2 1 4 8 10 9 5 3 4 5 9 16 20 18 16 14 14 13 11 10 10 10 8 6 4 4 4 3 1 0 0 0 0 0 0 0
5 4 2 1 1 1 1 1 2 3 4 5 5 2 1 5 10 11 9 6 5 5 4 6 13 19 18 16 15 15 13 9 8 8 8 7 7 5 3 3 3 2 0 0 0 0 0 0 0
6 4 3 1 0 0 0 1 3 3 3 4 4 3 2 7 11 11 8 7 7 6 3 3 8 13 16 15 16 16 13 8 6 6 5 6 6 5 3 2 3 2 1 1 1 1 1 0 0
6 4 2 1 0 0 1 3 4 4 3 4 5 4 3 8 14 13 10 9 8 5 2 1 3 8 10 11 12 13 11 8 5 4 3 4 4 3 3 4 3 3 2 2 2 2 2 1 1
4 3 1 0 0 1 2 3 4 5 4 5 6 5 6 11 16 18 16 13 9 5 1 0 2 4 6 6 7 8 8 6 3 2 2 1 1 1 2 3 3 3 3 3 3 3 3 2 2
3 2 1 1 1 1 2 3 5 6 6 6 8 8 9 12 16 20 21 17 12 7 3 1 2 3 4 3 3 4 3 2 1 0 0 0 0 0 1 2 2 2 2 2 2 2 2 2 1
2 2 2 3 2 1 1 3 5 7 7 7 9 9 9 12 15 18 19 17 13 9 5 2 2 2 2 1 2 2 1 0 0 0 0 0 0 0 0 1 1 1 1 1 1 1 1 1 0
2 2 2 2 1 2 3 5 7 7 7 8 8 8 8 10 14 16 16 14 12 10 6 2 1 1 1 1 2 2 1 1 0 0 0 0 0 0 0 0 1 1 0 0 0 0 0 0 0
2 2 1 1 1 3 7 9 8 8 10 11 9 9 9 10 13 15 15 14 13 11 7 3 1 1 1 2 3 3 3 2 1 1 1 2 1 0 0 1 2 1 0 0 0 0 0 0 0
1 1 0 0 1 4 8 11 10 10 12 12 9 9 10 12 15 17 17 15 14 12 9 6 4 4 4 3 4 4 4 3 3 3 3 3 2 1 1 1 1 1 0 0 0 0 0 0 0
0 0 0 0 0 3 7 9 10 11 12 11 8 8 10 13 16 19 19 16 13 11 10 8 7 7 7 5 4 4 3 3 4 4 4 3 3 3 2 1 1 0 0 0 0 0 0 0 0
0 0 0 0 1 2 4 6 8 10 12 11 9 9 10 13 17 20 19 14 10 9 9 8 6 6 7 7 6 5 5 5 5 5 4 5 5 5 4 3 2 1 0 0 0 0 0 0 0
0 0 0 0 2 3 4 4 5 8 11 12 11 10 11 13 17 20 18 12 9 9 9 8 7 6 7 7 7 7 8 7 6 5 6 7 8 8 6 4 3 2 1 0 0 0 0 0 0
0 0 0 0 1 3 4 3 4 6 10 13 12 11 12 14 17 21 19 14 11 11 12 13 12 10 9 8 8 8 8 8 6 5 6 8 10 9 7 5 5 4 2 1 0 0 0 0 0
0 0 0 0 1 2 3 3 3 5 8 11 13 12 11 13 18 22 21 19 17 17 17 17 16 14 11 10 9 8 7 7 6 5 5 8 11 11 9 7 6 4 3 1 0 0 0 0 0
0 0 0 0 0 1 1 2 3 4 6 9 12 13 12 14 20 23 23 24 25 23 20 17 17 15 12 11 11 10 8 8 7 7 7 9 12 13 12 10 8 6 4 2 1 1 0 0 0
0 0 0 0 0 0 0 1 2 5 7 9 12 15 15 17 22 24 25 27 28 24 19 16 16 16 13 12 13 13 11 9 8 7 7 9 12 14 14 13 12 8 5 4 3 2 1 1 1
0 0 0 0 0 0 0 0 2 6 9 11 13 16 18 20 24 25 25 27 27 22 19 17 18 18 14 12 14 14 13 11 8 5 6 8 11 13 13 14 13 11 8 7 4 2 2 2 3
0 0 0 0 0 0 0 0 2 7 10 12 15 18 20 23 25 25 25 26 25 23 20 19 19 19 15 13 14 14 13 10 7 6 7 9 10 11 13 15 15 13 12 10 6 4 4 5 6
0 0 0 0 0 0 0 0 2 5 8 12 17 21 23 25 25 25 25 26 26 25 22 21 22 21 18 16 15 13 10 7 7 9 9 10 11 12 15 18 18 17 14 11 8 6 6 7 6
0 0 0 0 0 0 0 0 1 3 6 11 18 23 26 27 26 26 26 26 27 26 25 25 25 24 21 17 15 12 9 7 8 10 9 9 11 13 16 19 20 19 15 11 9 7 6 5 5
0 0 0 0 0 0 0 0 0 2 6 12 17 23 26 28 28 27 26 26 27 27 26 26 26 25 22 17 12 10 10 9 9 9 8 9 10 12 15 16 16 16 15 11 9 7 6 5 5
0 0 0 0 0 0 0 0 0 2 7 13 17 22 25 27 28 27 26 25 25 25 24 24 24 24 21 14 9 8 10 11 9 8 8 9 10 11 12 12 11 12 12 11 9 7 7 7 7
0 0 0 0 0 0 0 0 1 4 8 13 16 18 22 25 26 26 25 24 23 22 21 22 23 22 18 12 8 9 12 12 10 8 9 10 10 10 10 10 9 10 11 11 10 7 7 7 7
0 0 0 0 0 0 0 1 4 7 9 11 12 14 18 24 26 25 26 25 24 22 20 19 20 18 16 13 12 13 13 12 10 8 8 10 10 10 11 12 11 11 11 11 10 8 7 8 8
0 0 0 0 0 0 1 2 6 9 9 8 10 12 17 23 26 26 27 26 24 22 19 18 17 16 16 16 15 15 13 11 10 8 8 9 11 12 13 12 12 13 13 12 10 8 9 10 9
Wind_Speed
8 6 3 1 1 1 1 0 4 4 4 5 8 9 8 5 4 4 3 9 10 9 8 9 11 11 11 11 10 10 10 9 9 9 9 10 10 11 11 12 12 11 11 10 10 9 8 8 7
6 6 2 0 2 2 1 1 5 5 7 8 9 9 7 5 5 7 5 9 11 10 7 9 12 11 11 11 10 10 10 10 9 9 9 10 10 11 12 12 11 11 11 10 9 9 8 7 7
6 4 1 1 0 1 0 2 6 7 8 6 6 6 5 5 5 5 6 12 10 8 7 9 13 11 11 11 10 10 10 10 9 9 10 10 10 11 12 12 11 11 10 10 9 8 7 7 6
2 1 1 1 2 3 3 3 7 8 7 7 7 6 4 4 5 7 12 13 11 9 7 8 12 12 11 11 11 10 10 10 9 10 10 10 10 11 11 11 11 10 10 10 9 8 8 7 6
1 1 1 2 3 1 2 5 7 7 5 7 8 6 4 3 9 12 13 13 11 8 6 8 12 12 11 11 10 10 10 9 9 9 10 11 11 10 11 11 11 10 10 10 9 8 7 6 6
1 1 1 1 1 1 2 5 9 9 9 8 8 6 3 4 9 11 11 11 10 10 7 6 11 12 11 10 9 9 9 9 9 9 10 11 11 10 10 10 10 10 9 9 9 8 7 6 5
2 1 2 2 1 1 3 4 8 9 7 6 7 6 3 3 7 10 10 9 9 9 8 5 5 7 9 10 9 8 9 9 8 8 9 11 11 10 10 9 9 9 9 9 8 7 7 6 5
4 1 2 2 1 1 3 4 6 9 6 7 6 7 5 6 7 9 9 8 8 7 6 5 4 4 4 5 7 8 8 9 8 7 10 11 10 10 10 8 8 9 8 8 7 7 6 6 5
2 1 3 4 3 2 3 6 4 6 8 5 5 6 9 11 10 10 9 7 6 6 5 5 4 4 4 3 5 6 7 8 7 6 8 7 4 4 5 7 8 8 8 7 7 6 6 5 5
3 2 6 5 4 4 3 6 6 6 8 6 8 9 11 11 11 10 10 8 7 6 5 5 5 4 3 3 2 1 3 4 3 3 3 3 3 3 4 6 8 7 7 7 7 6 5 4 2
4 6 6 5 3 4 5 5 5 9 6 9 13 13 11 10 9 9 9 8 8 7 7 5 5 5 4 2 2 1 2 2 3 3 3 3 2 2 2 2 3 3 4 2 3 3 2 2 1
3 6 5 4 3 3 5 5 5 6 9 13 14 14 12 10 9 9 9 8 7 7 7 6 6 5 4 3 3 2 2 2 2 3 3 3 2 2 2 2 2 2 1 2 2 2 2 2 2
3 5 4 3 1 3 5 6 7 7 12 14 14 13 11 10 8 7 8 8 8 7 6 7 6 5 4 3 3 3 3 3 3 3 3 3 3 3 2 2 2 2 2 2 2 2 2 2 3
4 4 5 4 1 3 7 5 6 8 13 14 13 11 10 10 9 7 7 8 8 8 7 6 6 5 5 4 3 3 3 2 2 2 3 4 3 3 3 2 2 2 2 2 2 3 3 2 2
3 4 7 3 1 2 6 3 5 10 13 13 12 11 10 9 9 9 9 8 8 8 7 6 7 5 4 4 4 3 3 3 2 2 3 3 3 3 3 3 2 2 2 2 2 2 2 2 2
4 2 3 5 1 2 6 3 6 10 13 11 11 11 10 9 9 9 8 8 8 8 7 6 6 5 4 4 3 2 2 2 2 2 2 3 3 3 3 2 2 2 2 2 2 2 2 2 2
4 2 4 6 2 2 4 4 6 10 12 11 10 10 10 9 7 8 9 9 8 8 8 6 5 5 4 3 3 2 2 2 2 2 2 2 3 3 3 2 2 2 2 2 3 2 2 2 2
5 4 4 4 3 1 2 3 6 10 11 11 10 9 10 10 10 9 9 9 9 8 7 6 5 5 4 3 2 1 1 1 1 2 2 3 3 3 3 2 2 2 2 2 2 2 2 2 2
6 5 5 6 4 1 2 4 7 9 9 10 9 9 10 10 9 9 9 9 8 7 7 6 6 5 4 2 2 2 1 1 1 1 2 2 3 3 3 2 2 2 3 3 3 2 2 2 1
5 5 6 5 2 2 2 2 5 7 10 11 12 11 11 9 8 9 8 8 9 9 8 7 6 5 5 3 3 2 2 1 1 1 1 2 2 2 3 2 2 3 2 2 2 2 2 2 2
5 5 5 4 2 3 2 3 2 3 4 4 6 8 9 12 12 10 9 8 9 9 9 8 7 6 5 4 3 2 2 1 1 0 0 1 2 2 2 2 3 2 2 2 2 2 3 2 1
5 7 5 3 2 2 1 2 6 3 2 5 7 8 8 9 9 9 9 8 10 9 8 8 7 6 5 4 4 4 3 2 2 1 1 1 1 2 2 2 2 2 2 2 2 2 2 2 1
6 5 2 1 2 1 2 1 7 1 3 6 8 10 10 10 11 11 10 9 8 8 7 7 6 6 5 5 5 4 3 2 1 1 1 1 1 1 2 2 2 2 2 2 1 1 2 2 2
2 3 6 5 5 2 4 3 6 5 8 7 7 9 11 10 11 10 9 7 6 7 7 7 6 5 5 5 5 5 5 3 3 2 1 1 1 1 1 2 2 2 2 2 2 1 2 1 1
3 6 5 6 5 4 4 2 8 8 8 8 9 10 10 10 10 9 9 9 8 8 8 7 7 5 5 4 4 5 5 5 4 3 2 2 1 1 1 1 2 2 2 2 2 1 1 1 1
2 8 7 4 4 4 4 3 7 6 4 4 6 8 8 8 8 10 10 9 10 10 9 8 8 6 5 4 4 4 4 3 2 3 3 2 2 2 1 1 1 2 2 2 2 1 1 1 1
1 2 7 7 2 1 4 4 5 2 2 3 6 7 7 8 8 10 10 9 9 9 9 9 8 7 6 5 4 3 4 4 3 3 2 2 2 1 1 1 1 1 1 1 2 1 1 1 1
4 4 5 5 3 2 4 3 3 3 3 4 6 7 7 7 7 8 8 8 7 7 7 7 8 7 6 6 6 5 4 4 4 3 3 2 2 1 1 1 1 1 1 1 1 1 1 1 0
2 2 3 3 5 6 2 5 4 5 4 5 5 6 7 7 7 7 7 7 6 5 5 5 6 7 6 6 5 5 4 4 3 3 3 3 2 2 2 2 2 1 1 1 1 1 1 1 1
4 3 5 3 2 4 3 6 3 3 3 6 6 5 5 6 6 5 6 6 6 6 6 6 6 6 7 6 6 5 4 3 3 3 3 3 3 2 2 2 2 2 2 2 2 2 1 2 2
Wind_Direction
166 160 161 201 319 25 320 304 115 83 63 66 81 89 87 73 104 140 167 146 142 147 158 153 143 141 142 141 139 136 134 133 132 133 136 137 138 140 144 143 144 144 143 143 143 141 139 137 136
160 169 173 340 40 31 328 103 95 108 124 113 87 89 83 74 90 111 119 143 144 148 154 150 147 145 144 143 140 138 138 137 136 138 139 140 140 142 145 146 145 145 144 144 145 144 144 141 139
177 188 165 55 17 185 175 107 111 105 110 100 88 68 75 104 108 125 145 144 139 141 148 152 149 148 145 143 141 140 139 139 139 141 143 142 140 141 145 147 147 148 149 149 148 147 147 144 144
174 158 1 30 268 234 172 142 114 103 78 71 91 72 60 90 126 133 139 142 139 142 147 150 149 148 146 145 143 141 141 141 141 145 146 146 144 144 147 149 150 152 153 153 151 149 151 150 149
158 109 23 320 284 248 141 133 123 108 90 85 91 89 63 47 107 125 137 145 144 145 146 153 152 148 148 146 142 142 142 141 141 144 147 148 148 149 149 150 153 156 157 156 154 152 153 151 147
33 77 52 272 275 346 113 120 102 98 106 107 101 101 87 109 118 133 138 143 145 143 146 153 154 148 148 148 146 146 145 144 143 147 152 154 153 152 152 154 156 160 162 162 162 158 159 160 155
163 137 232 232 252 23 129 116 108 116 120 126 125 101 113 138 136 139 141 137 139 142 145 150 155 153 154 152 153 157 153 149 145 151 159 159 158 156 158 161 163 165 169 170 171 170 171 169 169
181 143 274 247 172 191 144 111 120 121 120 123 117 125 152 172 136 126 127 128 132 140 147 149 149 147 153 158 159 164 159 153 146 145 148 153 159 162 165 167 168 169 172 174 177 179 181 180 187
161 96 254 228 177 196 142 110 103 94 106 103 99 122 145 144 125 116 117 118 125 138 151 151 156 155 154 160 166 171 163 157 156 151 148 151 152 160 167 170 173 174 178 182 186 190 198 199 209
148 191 236 221 191 178 159 136 136 103 99 94 94 104 125 130 130 128 132 140 145 152 162 160 163 168 165 167 154 159 148 148 145 137 146 142 146 165 172 174 178 178 183 190 196 203 210 214 221
181 213 248 256 219 162 145 135 122 125 127 146 141 141 141 135 138 140 146 151 157 161 162 167 169 169 168 164 144 132 121 131 138 145 148 143 146 156 168 164 179 182 180 185 193 206 214 212 219
210 251 249 268 248 150 142 133 118 135 153 149 144 148 147 145 149 152 154 156 154 153 164 165 168 166 169 154 147 142 130 138 150 160 158 152 150 155 165 168 163 170 174 176 185 193 199 212 225
254 270 280 292 42 136 121 127 125 130 135 138 142 146 149 151 153 157 157 155 150 154 162 167 166 167 163 150 151 145 153 156 165 170 172 163 158 165 165 168 164 174 174 176 180 194 202 216 227
259 290 303 307 338 137 121 116 112 144 141 141 144 149 152 154 154 148 149 152 156 158 159 156 160 165 153 152 156 155 164 163 163 170 173 165 163 165 158 158 165 180 185 185 184 196 202 219 221
315 332 318 308 95 143 97 71 147 155 146 148 153 155 152 157 157 158 161 157 157 156 155 156 156 154 150 154 160 155 160 152 156 170 173 162 162 169 160 158 172 192 181 173 180 200 205 215 222
348 9 302 287 211 184 117 188 197 160 151 157 163 162 161 165 166 163 159 153 153 148 148 156 153 149 151 150 152 147 149 147 158 161 168 169 169 170 157 161 187 192 176 179 188 196 205 226 229
353 301 271 285 263 176 130 189 194 168 158 163 170 170 167 162 166 166 164 160 159 155 154 152 143 144 151 150 146 143 140 148 156 155 166 176 174 172 162 172 196 187 183 200 213 191 190 213 236
256 266 276 269 271 103 117 192 180 175 167 171 174 171 167 169 179 175 167 163 161 158 155 152 144 147 146 137 120 104 102 133 150 163 177 183 184 179 168 178 190 177 185 211 218 200 198 210 227
236 259 269 260 248 148 168 176 190 181 172 173 177 179 177 178 180 173 167 164 157 152 149 153 151 158 150 141 142 143 164 175 182 194 184 182 183 183 173 181 177 175 188 207 207 195 205 228 204
245 265 279 285 273 154 167 190 197 187 187 184 182 183 180 175 171 173 168 164 161 159 160 158 160 164 163 165 163 162 157 180 184 190 181 186 182 182 176 171 176 182 183 194 199 188 185 219 181
256 229 242 240 344 4 70 348 275 221 179 176 182 177 176 176 175 174 170 169 163 164 168 168 167 163 166 159 138 120 84 56 55 46 236 226 202 198 187 176 174 179 173 185 197 183 171 194 234
256 246 231 224 128 275 105 283 286 250 182 188 190 182 178 176 169 166 166 166 170 174 169 165 165 162 163 154 149 152 158 170 199 198 207 234 208 194 196 181 171 171 166 178 203 187 174 163 205
232 258 267 226 132 24 356 132 282 275 201 207 193 189 184 181 174 171 172 171 172 169 164 164 161 160 164 161 162 159 164 180 182 171 191 238 254 223 191 171 159 167 175 183 189 171 168 172 181
221 6 14 41 66 9 267 170 267 237 212 208 198 184 180 180 178 171 164 153 153 159 160 162 158 167 169 165 161 161 167 165 155 168 184 230 264 256 208 177 177 187 186 185 186 181 164 167 167
66 76 25 360 13 265 271 182 246 237 211 196 193 185 177 172 169 163 158 157 158 161 164 162 164 173 175 168 170 170 172 168 169 179 180 184 229 253 245 203 189 194 194 181 166 154 155 160 160
207 135 153 197 221 271 317 247 259 242 202 181 172 165 164 163 166 163 164 166 168 172 172 169 170 171 171 170 181 178 172 168 172 178 175 182 202 219 218 186 180 182 183 187 164 164 196 168 181
176 184 169 147 197 302 290 288 314 344 95 121 133 138 157 164 166 164 167 170 172 174 177 173 168 169 171 173 171 172 172 172 173 177 173 187 202 200 192 188 192 195 178 181 162 175 211 179 185
152 162 89 110 157 257 290 282 253 256 165 130 134 152 153 150 154 157 165 167 172 176 174 164 165 171 179 181 185 179 179 179 176 170 178 191 201 199 186 199 198 187 174 158 164 193 207 158 213
20 43 97 120 154 159 231 271 239 180 158 148 145 150 149 154 153 153 163 164 160 158 164 168 173 169 178 185 184 180 187 185 176 173 186 192 198 190 194 204 191 193 220 208 181 205 175 169 183
144 163 134 143 245 164 166 261 309 143 142 143 141 136 140 139 133 141 151 150 152 161 168 171 176 177 184 184 180 188 193 186 184 189 199 192 191 195 193 197 192 205 220 213 189 203 204 187 188